Ft Lauderdale, FL

7:05 PM EDT on September 25, 2017 (GMT -0400)
Fort Lauderdale-Hollywood International

Weather History for KFLL - June, 2012

Change the Weather History Date:

Monday, June 4, 2012

  Actual Average Record
Temperature  
Mean Temperature 85 °F 83 °F  
Max Temperature 92 °F 88 °F 94 °F (2010)
Min Temperature 78 °F 77 °F 57 °F (1933)
Degree Days  
Heating Degree Days 0 0  
Month to date heating degree days 0 0  
Since 1 June heating degree days 0 0  
Since 1 July heating degree days 65 112  
Cooling Degree Days 20 18  
Month to date cooling degree days 70 69  
Year to date cooling degree days 1575 1487  
Since 1 June cooling degree days 70 69  
Growing Degree Days 34 (Base 50)    
Moisture  
Dew Point 71 °F    
Average Humidity 69    
Maximum Humidity 91    
Minimum Humidity 47    
Precipitation  
Precipitation 0.00 in 0.32 in 2.18 in (1936)
Month to date precipitation 2.08 1.26  
Year to date precipitation 18.31 18.75  
Snow  
Snow 0.00 in - - ()
Month to date snowfall 0.0  
Since 1 June snowfall 0.0  
Since 1 July snowfall 0.0  
Snow Depth 0.00 in    
Sea Level Pressure  
Sea Level Pressure 29.93 in    
Wind  
Wind Speed 8 mph (SW)    
Max Wind Speed 18 mph    
Max Gust Speed 23 mph    
Visibility 10 miles    
Events      
T = Trace of Precipitation, MM = Missing Value Source: NWS Daily Summary

Daily Weather History Graph

Daily Weather History Graph

Search for Another Location

Airport or City:

Trip Planner

Search our weather history database for the weather conditions in past years. The results will help you decide how hot, cold, wet, or windy it might be!

Date:

Astronomy

Jun. 04, 2012 Rise Set
Actual Time 6:28 AM EDT 8:10 PM EDT
Civil Twilight 6:02 AM EDT 8:36 PM EDT
Nautical Twilight 5:31 AM EDT 9:07 PM EDT
Astronomical Twilight 4:58 AM EDT 9:39 PM EDT
Moon 8:39 PM EDT (6/4) 6:32 AM EDT (6/4)
Length of Visible Light 14h 33m
Length of Day
13h 42m
Full, 100% of the Moon is Illuminated
Jun 4
Full
Jun 11
Last Quarter
Jun 19
New
Jun 26
First Quarter
Jul 3
Full

Hourly Weather History & Observations

Time (EDT) Temp. Heat Index Dew Point Humidity Pressure Visibility Wind Dir Wind Speed Gust Speed Precip Events Conditions
12:53 AM 80.1 °F 83.2 °F 70.0 °F 71% 30.01 in 10.0 mi SSE 4.6 mph - N/A   Clear
1:53 AM 79.0 °F - 71.1 °F 77% 29.98 in 10.0 mi SSE 3.5 mph - N/A   Clear
2:53 AM 79.0 °F - 72.0 °F 79% 29.95 in 10.0 mi SE 3.5 mph - N/A   Clear
3:53 AM 79.0 °F - 73.9 °F 84% 29.93 in 10.0 mi SSE 4.6 mph - N/A   Clear
4:53 AM 79.0 °F - 73.9 °F 84% 29.92 in 10.0 mi South 4.6 mph - N/A   Clear
5:53 AM 79.0 °F - 75.0 °F 88% 29.94 in 10.0 mi Calm Calm - N/A   Partly Cloudy
6:53 AM 78.1 °F - 75.0 °F 90% 29.96 in 10.0 mi Calm Calm - N/A   Partly Cloudy
7:53 AM 81.0 °F 87.3 °F 75.9 °F 85% 29.97 in 10.0 mi SSW 6.9 mph - N/A   Partly Cloudy
8:53 AM 82.9 °F 89.4 °F 73.9 °F 74% 29.98 in 10.0 mi SW 10.4 mph - N/A   Partly Cloudy
9:53 AM 84.9 °F 91.4 °F 73.0 °F 67% 29.98 in 10.0 mi WSW 10.4 mph - N/A   Partly Cloudy
10:53 AM 88.0 °F 90.7 °F 66.9 °F 49% 29.97 in 10.0 mi WSW 12.7 mph - N/A   Partly Cloudy
11:53 AM 89.1 °F 91.3 °F 66.0 °F 46% 29.96 in 10.0 mi WSW 10.4 mph - N/A   Partly Cloudy
12:53 PM 90.0 °F 93.6 °F 68.0 °F 48% 29.96 in 10.0 mi WSW 6.9 mph - N/A   Partly Cloudy
1:53 PM 91.0 °F 97.6 °F 71.1 °F 52% 29.94 in 10.0 mi WSW 8.1 mph - N/A   Partly Cloudy
2:53 PM 91.0 °F 96.6 °F 70.0 °F 50% 29.93 in 10.0 mi WSW 12.7 mph 17.3 mph N/A   Partly Cloudy
3:53 PM 91.9 °F 97.4 °F 70.0 °F 48% 29.91 in 10.0 mi West 11.5 mph 21.9 mph N/A   Scattered Clouds
4:53 PM 91.0 °F 96.6 °F 70.0 °F 50% 29.90 in 10.0 mi WSW 12.7 mph 23.0 mph N/A   Scattered Clouds
5:53 PM 90.0 °F 95.4 °F 70.0 °F 52% 29.88 in 10.0 mi West 13.8 mph - N/A   Partly Cloudy
6:53 PM 89.1 °F 94.1 °F 70.0 °F 53% 29.88 in 10.0 mi West 12.7 mph - N/A   Partly Cloudy
7:53 PM 87.1 °F 92.8 °F 71.1 °F 59% 29.89 in 10.0 mi West 11.5 mph - N/A   Partly Cloudy
8:53 PM 86.0 °F 91.5 °F 71.1 °F 61% 29.88 in 10.0 mi West 10.4 mph - N/A   Partly Cloudy
9:53 PM 84.0 °F 89.6 °F 72.0 °F 67% 29.90 in 10.0 mi WNW 10.4 mph - N/A   Clear
10:53 PM 82.9 °F 88.0 °F 72.0 °F 69% 29.90 in 10.0 mi WSW 5.8 mph - N/A   Clear
11:53 PM 82.0 °F 87.4 °F 73.0 °F 74% 29.89 in 10.0 mi WSW 5.8 mph - N/A   Clear